[[{"header":{"parameterUnit":"m.s-1","parameterCategory":1,"la1":30.2991,"la2":30.254,"lo1":-89.0895,"lo2":-89.0444,"dy":0.0017,"dx":0.0017,"nx":28,"ny":28,"refTime":"2024-08-25T09:00:00:Z","depth":0,"parameterNumber":2,"parameterNumberName":"U-component_of_WINDS"},"data":[0,0,0,0,0,0,0,0,0,0,0,0,0,0,0,0,0,0,0,0,0,0,0,0,0,0,0,0,0,0,0,0,0,0,0,0,0,0,0,0,0,0,0,0,0,0,0,0,0,0,0,0,0,0,0,0,0,0,-3.6827,-3.6826,0,-3.681,-3.681,-3.681,-3.6756,-3.6755,-3.6753,-3.6752,-3.6734,-3.6735,-3.6736,0,0,0,0,0,0,0,0,0,0,0,0,0,-3.6813,-3.6813,-3.6827,-3.6826,-3.6826,-3.681,-3.681,-3.681,-3.6756,-3.6754,-3.6753,-3.6752,-3.6734,-3.6735,-3.6736,0,0,0,0,0,0,0,0,0,0,0,0,0,-3.681,-3.6814,-3.6827,-3.6798,-3.6795,-3.681,-3.681,-3.6809,-3.6756,-3.6754,-3.6753,-3.6751,-3.6734,-3.6735,-3.6736,-3.6778,0,0,-3.6739,-3.6739,0,0,0,0,0,0,0,0,-3.681,-3.681,-3.6802,-3.68,-3.6796,-3.6783,-3.6798,-3.6799,-3.6757,-3.6771,-3.6752,-3.675,-3.6752,-3.6751,-3.6752,-3.6777,-3.6776,-3.6739,-3.6739,-3.674,-3.674,0,0,0,0,0,0,0,-3.681,-3.6811,-3.682,-3.6802,-3.6799,-3.6786,-3.6783,-3.6798,-3.6772,-3.6769,-3.6766,-3.6764,-3.675,-3.6751,-3.6751,-3.6776,-3.6739,-3.674,-3.674,-3.6741,-3.6837,-3.6839,0,0,0,0,0,0,-3.6815,-3.6811,-3.682,-3.6819,-3.6799,-3.6787,-3.6785,-3.6789,-3.6771,-3.6767,-3.6766,-3.6762,-3.6751,-3.675,-3.6751,-3.68,-3.674,-3.6741,-3.6741,-3.6835,-3.6837,-3.6839,0,0,0,0,0,0,-3.6815,-3.6816,-3.6821,-3.6814,-3.6814,-3.6789,-3.6795,-3.679,-3.6791,-3.6769,-3.6764,-3.6772,-3.6749,-3.6749,-3.6772,-3.6798,-3.6741,-3.6742,-3.6832,-3.6835,-3.6838,-3.6898,0,0,0,0,0,0,-3.6814,-3.6816,-3.6831,-3.6815,-3.6815,-3.6843,-3.6797,-3.6791,-3.6793,-3.6787,-3.6773,-3.6769,-3.6748,-3.6771,-3.6773,-3.6799,-3.6743,-3.683,-3.6834,-3.6837,-3.6894,-3.6903,-3.6911,0,0,0,0,0,-3.6814,-3.6848,-3.6833,-3.6834,-3.6833,-3.6844,-3.6844,-3.6819,-3.6795,-3.6811,-3.6797,-3.6769,-3.6795,-3.6774,-3.6775,-3.6802,-3.6828,-3.6833,-3.6837,-3.689,-3.6901,-3.691,0,0,0,0,0,0,-3.6867,-3.6845,-3.6828,-3.6858,-3.6854,-3.6835,-3.6854,-3.6831,-3.6833,-3.6828,-3.6797,-3.6795,-3.6822,-3.6814,-3.679,-3.6843,-3.6807,-3.6812,-3.6847,-3.6857,-3.6866,-3.6867,-3.6744,0,0,0,0,0,-3.6883,-3.6894,-3.6874,-3.6902,-3.6901,-3.6878,-3.6882,-3.6864,-3.6858,-3.6855,-3.6843,-3.6838,-3.6846,-3.6851,-3.6856,-3.6893,-3.6889,-3.6912,-3.692,-3.6927,-3.6932,-3.6953,-3.6963,-3.6854,-3.6854,-3.6854,0,0,-3.6914,-3.6904,-3.6912,-3.6913,-3.6907,-3.692,-3.6877,-3.6891,-3.69,-3.6857,-3.6879,-3.687,-3.6863,-3.6893,-3.6906,-3.6887,-3.6962,-3.6933,-3.6939,-3.694,-3.6959,-3.6969,-3.6978,-3.6857,-3.6856,-3.6856,0,0,-3.6978,-3.6971,-3.6995,-3.6991,-3.6984,-3.6968,-3.6974,-3.696,-3.6953,-3.6974,-3.6943,-3.6954,-3.6966,-3.6963,-3.6963,-3.703,-3.7005,-3.7032,-3.7076,-3.7097,-3.7105,-3.7113,-3.7138,-3.7147,-3.7037,-3.7037,-3.7037,0,-3.7018,-3.7035,-3.7009,-3.7027,-3.7029,-3.6992,-3.7016,-3.7014,-3.7008,-3.7011,-3.6991,-3.7008,-3.7,-3.703,-3.7047,-3.7048,-3.7054,-3.7033,-3.7106,-3.7114,-3.712,-3.7144,-3.7153,-3.7041,-3.704,-3.704,-3.7039,0,-3.7086,-3.7099,-3.7119,-3.7116,-3.712,-3.7141,-3.7119,-3.7127,-3.7109,-3.7096,-3.7119,-3.7109,-3.7113,-3.7119,-3.7101,-3.7147,-3.7136,-3.7112,-3.7075,-3.7134,-3.7156,-3.7165,-3.7045,-3.7044,-3.7043,-3.7042,0,0,-3.7181,-3.7166,-3.7173,-3.7173,-3.7164,-3.7173,-3.7193,-3.7198,-3.7206,-3.7204,-3.7221,-3.7234,-3.7212,-3.7212,-3.7194,-3.7212,-3.7267,-3.7185,-3.7184,-3.7201,-3.732,-3.7339,-3.7349,-3.7251,-3.7252,-3.7254,-3.7321,0,-3.7242,-3.7276,-3.7254,-3.7291,-3.7304,-3.7271,-3.7288,-3.7285,-3.7275,-3.7284,-3.7272,-3.7283,-3.7252,-3.7252,-3.7269,-3.7257,-3.729,-3.7252,-3.7267,-3.7268,-3.727,-3.736,-3.738,-3.7443,-3.7329,-3.733,-3.7331,0,-3.7318,-3.7321,-3.736,-3.7351,-3.7355,-3.7371,-3.7375,-3.7385,-3.7381,-3.7372,-3.7374,-3.7352,-3.7372,-3.7337,-3.7365,-3.7339,-3.7344,-3.734,-3.7342,-3.7342,-3.7303,-3.7364,-3.7463,-3.7473,-3.7344,-3.7343,-3.7342,0,-3.7385,-3.7399,-3.7424,-3.7425,-3.7414,-3.7427,-3.7423,-3.7418,-3.7423,-3.7426,-3.7429,-3.7435,-3.7438,-3.7443,-3.7424,-3.74,-3.7455,-3.7418,-3.7449,-3.745,-3.7462,-3.7461,-3.7564,-3.7465,-3.7465,-3.7464,-3.7464,0,-3.7456,-3.7481,-3.7455,-3.7471,-3.7499,-3.7474,-3.7503,-3.7496,-3.7492,-3.7506,-3.7477,-3.7492,-3.7465,-3.7477,-3.7461,-3.7488,-3.7489,-3.7483,-3.7479,-3.7486,-3.7487,-3.7489,-3.7484,-3.7467,-3.7466,-3.7466,-3.7465,0,-3.7535,-3.7518,-3.7544,-3.7533,-3.7531,-3.7552,-3.7543,-3.7557,-3.7546,-3.7565,-3.7568,-3.755,-3.7563,-3.7544,-3.7554,-3.7544,-3.7581,-3.757,-3.7583,-3.758,-3.7613,-3.761,-3.772,-3.7734,-3.7626,-3.7627,-3.7627,0,-3.7581,-3.76,-3.7592,-3.76,-3.7598,-3.7611,-3.7617,-3.7595,-3.7602,-3.7601,-3.7616,-3.7627,-3.7634,-3.7656,-3.7644,-3.7652,-3.7641,-3.7679,-3.7642,-3.765,-3.7643,-3.7643,-3.7645,-3.7687,-3.7688,-3.7689,-3.769,0,-3.7666,-3.7657,-3.7667,-3.7674,-3.7682,-3.7687,-3.7689,-3.7697,-3.7674,-3.7684,-3.7697,-3.7703,-3.7715,-3.7726,-3.7732,-3.7728,-3.7706,-3.7702,-3.771,-3.7718,-3.7725,-3.7723,-3.7604,-3.7699,-3.7699,-3.7698,-3.7697,-3.7697,-3.773,-3.7747,-3.7744,-3.7756,-3.7756,-3.776,-3.7774,-3.7766,-3.7776,-3.7785,-3.7771,-3.7788,-3.7787,-3.7792,-3.7792,-3.7805,-3.7789,-3.78,-3.7803,-3.7806,-3.7812,-3.7723,-3.7806,-3.7806,-3.7806,-3.7805,-3.7805,0,-3.7814,-3.7812,-3.7824,-3.7829,-3.7839,-3.7818,-3.7821,-3.7831,-3.7846,-3.7847,-3.7855,-3.7872,-3.7884,-3.7874,-3.7884,-3.7897,-3.7887,-3.79,-3.7899,-3.7899,-3.7825,-3.7818,-3.7908,-3.7908,-3.7908,-3.7908,-3.7908,-3.7908,-3.7859,-3.7887,-3.7879,-3.7906,-3.7903,-3.7921,-3.7924,-3.7928,-3.7929,-3.7949,-3.7959,-3.7953,-3.795,-3.7959,-3.797,-3.7967,-3.7972,-3.7989,-3.7983,-3.7914,-3.7904,-3.7894,-3.7887,-3.799,-3.799,-3.8055,-3.8056,-3.8056]},{"header":{"parameterUnit":"m.s-1","parameterCategory":1,"la1":30.2991,"la2":30.254,"lo1":-89.0895,"lo2":-89.0444,"dy":0.0017,"dx":0.0017,"nx":28,"ny":28,"refTime":"2024-08-25T09:00:00:Z","depth":0,"parameterNumber":3,"parameterNumberName":"V-component_of_WINDS"},"data":[0,0,0,0,0,0,0,0,0,0,0,0,0,0,0,0,0,0,0,0,0,0,0,0,0,0,0,0,0,0,0,0,0,0,0,0,0,0,0,0,0,0,0,0,0,0,0,0,0,0,0,0,0,0,0,0,0,0,-1.5182,-1.5182,0,-1.5216,-1.5217,-1.5217,-1.5204,-1.5203,-1.5202,-1.5201,-1.5238,-1.5239,-1.5241,0,0,0,0,0,0,0,0,0,0,0,0,0,-1.5104,-1.5105,-1.5182,-1.5182,-1.5182,-1.5216,-1.5217,-1.5217,-1.5204,-1.5203,-1.5202,-1.5201,-1.5237,-1.5239,-1.5241,0,0,0,0,0,0,0,0,0,0,0,0,0,-1.5138,-1.5106,-1.5182,-1.518,-1.518,-1.5216,-1.5217,-1.5217,-1.5204,-1.5203,-1.5202,-1.5201,-1.5236,-1.5239,-1.5241,-1.5281,0,0,-1.5249,-1.525,0,0,0,0,0,0,0,0,-1.5136,-1.5141,-1.518,-1.518,-1.518,-1.5204,-1.5203,-1.5239,-1.5204,-1.5195,-1.5201,-1.52,-1.5228,-1.5231,-1.524,-1.5283,-1.5285,-1.525,-1.5251,-1.5252,-1.5253,0,0,0,0,0,0,0,-1.5134,-1.5139,-1.5195,-1.518,-1.5181,-1.5177,-1.5181,-1.5209,-1.5218,-1.5196,-1.5195,-1.5199,-1.5228,-1.5238,-1.5241,-1.5285,-1.5249,-1.5252,-1.5253,-1.5254,-1.5362,-1.5363,0,0,0,0,0,0,-1.5131,-1.5137,-1.5194,-1.5196,-1.5155,-1.518,-1.5184,-1.5198,-1.5217,-1.5219,-1.52,-1.5198,-1.5234,-1.5238,-1.5242,-1.529,-1.5252,-1.5255,-1.5256,-1.5361,-1.5362,-1.5364,0,0,0,0,0,0,-1.513,-1.5136,-1.5193,-1.5167,-1.5174,-1.5182,-1.5198,-1.5199,-1.5209,-1.5221,-1.5222,-1.5209,-1.5233,-1.5238,-1.5272,-1.5291,-1.5256,-1.5258,-1.5359,-1.5361,-1.5363,-1.5386,0,0,0,0,0,0,-1.5127,-1.5136,-1.5151,-1.5167,-1.5175,-1.5222,-1.52,-1.5201,-1.5214,-1.5212,-1.5229,-1.5231,-1.5232,-1.5268,-1.5274,-1.5294,-1.526,-1.5358,-1.536,-1.5362,-1.5384,-1.5389,-1.5393,0,0,0,0,0,-1.5125,-1.5157,-1.5152,-1.5159,-1.5194,-1.5223,-1.5228,-1.5229,-1.5215,-1.5231,-1.5238,-1.523,-1.5288,-1.5271,-1.5278,-1.5299,-1.5356,-1.5359,-1.5362,-1.5382,-1.5388,-1.5393,0,0,0,0,0,0,-1.5144,-1.5159,-1.5154,-1.5192,-1.5206,-1.5221,-1.524,-1.5235,-1.5254,-1.5251,-1.5252,-1.5256,-1.529,-1.5298,-1.5279,-1.5338,-1.532,-1.5324,-1.5332,-1.5338,-1.5343,-1.534,-1.5262,0,0,0,0,0,-1.5152,-1.5174,-1.5186,-1.5218,-1.5226,-1.5232,-1.5244,-1.5244,-1.5259,-1.5265,-1.5274,-1.5289,-1.531,-1.5325,-1.5345,-1.5384,-1.5388,-1.5402,-1.5407,-1.541,-1.5414,-1.5435,-1.5442,-1.5374,-1.5374,-1.5373,0,0,-1.517,-1.5181,-1.5195,-1.5222,-1.5233,-1.5256,-1.5237,-1.5262,-1.5279,-1.5269,-1.53,-1.5308,-1.5324,-1.5361,-1.5377,-1.5368,-1.5434,-1.5414,-1.5417,-1.5419,-1.5439,-1.5446,-1.5451,-1.5376,-1.5375,-1.5375,0,0,-1.5214,-1.5225,-1.5253,-1.5264,-1.5281,-1.5284,-1.5291,-1.5306,-1.531,-1.5342,-1.5335,-1.5355,-1.5391,-1.5403,-1.5414,-1.5462,-1.5456,-1.5468,-1.5493,-1.5513,-1.5519,-1.5523,-1.554,-1.5546,-1.5472,-1.5472,-1.5472,0,-1.5235,-1.5269,-1.5268,-1.5293,-1.5305,-1.5296,-1.5325,-1.5336,-1.5358,-1.5367,-1.5356,-1.5402,-1.5412,-1.5451,-1.5462,-1.5472,-1.5479,-1.5467,-1.5518,-1.5523,-1.5527,-1.5543,-1.555,-1.5474,-1.5474,-1.5473,-1.5473,0,-1.5293,-1.5316,-1.5337,-1.5358,-1.5372,-1.5399,-1.5403,-1.5417,-1.5415,-1.5419,-1.5452,-1.5464,-1.5486,-1.5495,-1.5493,-1.5534,-1.5527,-1.5517,-1.5499,-1.5535,-1.555,-1.5556,-1.5476,-1.5475,-1.5475,-1.5474,0,0,-1.5351,-1.5371,-1.5379,-1.5388,-1.5405,-1.5423,-1.5449,-1.547,-1.5483,-1.5498,-1.552,-1.5551,-1.5541,-1.5554,-1.5553,-1.5571,-1.5608,-1.5559,-1.5559,-1.5567,-1.5653,-1.566,-1.5668,-1.5603,-1.5604,-1.5605,-1.5651,0,-1.5397,-1.5443,-1.5442,-1.5484,-1.5506,-1.5497,-1.5519,-1.5532,-1.5537,-1.5556,-1.5561,-1.5583,-1.5568,-1.5576,-1.5593,-1.56,-1.5625,-1.5596,-1.5624,-1.5625,-1.562,-1.5676,-1.5684,-1.5727,-1.5657,-1.5658,-1.5659,0,-1.5457,-1.5474,-1.5518,-1.5531,-1.554,-1.556,-1.558,-1.5598,-1.5612,-1.5614,-1.5627,-1.5623,-1.5649,-1.5629,-1.5665,-1.5646,-1.5657,-1.5662,-1.5663,-1.5667,-1.5644,-1.5681,-1.5741,-1.5747,-1.5668,-1.5667,-1.5667,0,-1.5496,-1.5529,-1.556,-1.5568,-1.5584,-1.5598,-1.5606,-1.5619,-1.5631,-1.5648,-1.5656,-1.5676,-1.5686,-1.5702,-1.5703,-1.5688,-1.5739,-1.572,-1.5742,-1.5742,-1.5754,-1.5753,-1.5817,-1.576,-1.576,-1.576,-1.576,0,-1.5547,-1.5575,-1.5577,-1.5596,-1.5626,-1.5625,-1.5655,-1.5661,-1.5672,-1.5692,-1.5685,-1.5704,-1.5705,-1.5724,-1.5725,-1.5755,-1.576,-1.5762,-1.5762,-1.5763,-1.5763,-1.5771,-1.5768,-1.5762,-1.5761,-1.5761,-1.5761,0,-1.5596,-1.5599,-1.5631,-1.5643,-1.5647,-1.5669,-1.5679,-1.5697,-1.57,-1.5726,-1.5731,-1.5737,-1.5759,-1.5762,-1.5788,-1.5789,-1.5824,-1.5821,-1.5819,-1.5819,-1.5841,-1.5839,-1.5913,-1.5923,-1.5859,-1.586,-1.586,0,-1.5629,-1.565,-1.5664,-1.5676,-1.5684,-1.5705,-1.5717,-1.5717,-1.573,-1.5747,-1.5763,-1.5784,-1.5801,-1.5837,-1.5843,-1.5863,-1.586,-1.5884,-1.5863,-1.5863,-1.5861,-1.586,-1.5862,-1.5889,-1.589,-1.589,-1.5891,0,-1.5687,-1.5687,-1.5706,-1.5724,-1.5739,-1.5754,-1.5768,-1.5778,-1.5779,-1.5795,-1.5817,-1.583,-1.5856,-1.5877,-1.5896,-1.5904,-1.5897,-1.5897,-1.5903,-1.5905,-1.5903,-1.5904,-1.5831,-1.5896,-1.5895,-1.5895,-1.5894,-1.5894,-1.573,-1.5747,-1.576,-1.578,-1.579,-1.5803,-1.582,-1.5825,-1.5844,-1.5864,-1.5863,-1.5887,-1.59,-1.5925,-1.5934,-1.5953,-1.5945,-1.5954,-1.5956,-1.5959,-1.5961,-1.5899,-1.5956,-1.5956,-1.5956,-1.5956,-1.5956,0,-1.5788,-1.5795,-1.5814,-1.5833,-1.5849,-1.584,-1.5855,-1.5869,-1.589,-1.5902,-1.5919,-1.5944,-1.5964,-1.5972,-1.5992,-1.6005,-1.6003,-1.6011,-1.601,-1.6012,-1.5967,-1.596,-1.6012,-1.6012,-1.6012,-1.6012,-1.6012,-1.6012,-1.582,-1.585,-1.5851,-1.5885,-1.5892,-1.5916,-1.5925,-1.5936,-1.5946,-1.5974,-1.5991,-1.5995,-1.6006,-1.6026,-1.6044,-1.6045,-1.6053,-1.6062,-1.6063,-1.6021,-1.6015,-1.601,-1.6003,-1.6064,-1.6064,-1.6106,-1.6106,-1.6107]}]]